Wind_Speed
12 6 3 7 10 13 12 11 16 16 10 8 6 6 7 8 9 9 12 11 5 7 9 12 17 17 17 17 17 27 31 24 23 24 28 34 36 39 41 45 49 52 56 55 54 54 53 52 49 47 47 44 43 43 43 42 43 44 45 46 47 46 45 44 44 43 42 40 38 37 37 38 39 40 41 40 39 38 36 34 33 32 32 32 32 31
7 7 8 13 15 14 11 10 12 11 9 10 7 8 10 8 12 13 12 13 6 5 10 11 16 19 17 16 16 21 21 19 23 23 28 34 35 38 41 46 50 51 54 54 54 55 53 52 48 45 44 42 41 41 42 41 41 43 46 47 47 46 46 45 45 44 43 41 39 37 36 36 38 40 40 40 39 39 37 36 34 33 33 33 33 32
4 7 11 16 14 9 5 4 7 9 9 9 6 7 8 7 11 13 10 13 7 4 9 10 14 17 15 15 15 16 17 23 32 32 34 37 33 35 40 45 50 50 52 55 54 54 52 51 46 43 42 41 40 39 40 41 40 43 46 47 47 47 46 46 45 45 43 41 39 37 35 35 36 38 39 38 38 38 38 37 36 35 35 35 34 33
5 7 14 17 11 6 6 5 5 6 5 6 6 6 8 7 8 9 7 8 5 4 7 9 12 14 12 13 11 16 25 29 36 38 39 40 34 38 44 46 47 49 52 55 54 52 50 48 45 43 42 41 39 37 39 41 42 44 45 47 48 47 47 46 45 44 43 41 39 38 36 35 35 36 37 38 39 39 39 39 38 37 36 36 35 34
10 6 11 13 9 9 11 10 6 4 7 9 8 7 11 12 12 12 7 7 6 5 6 7 13 12 10 14 11 14 23 24 28 32 34 40 41 43 46 47 50 54 56 56 54 52 49 47 46 43 40 38 37 37 39 40 41 42 43 46 47 46 46 45 45 44 43 43 42 40 38 37 37 37 38 40 41 42 42 41 40 38 37 37 36 35
12 7 7 7 7 11 11 9 7 7 10 10 8 12 18 17 14 14 11 8 6 6 4 2 10 10 6 11 11 7 10 13 17 20 24 37 43 41 42 48 53 56 56 56 54 52 49 48 47 42 38 37 37 37 36 37 39 40 42 45 45 46 45 45 45 45 44 44 43 42 41 40 40 40 41 42 42 42 42 41 41 39 37 37 37 37
6 9 10 9 9 11 9 7 7 10 10 10 7 14 17 14 11 11 9 5 3 6 4 4 3 11 5 5 8 7 8 12 13 13 19 31 37 36 41 48 51 51 52 52 51 50 48 47 45 41 38 37 35 34 35 37 39 41 43 44 44 45 45 44 45 45 45 44 43 43 41 40 40 41 41 41 41 41 40 40 40 39 38 38 38 38
4 7 10 10 10 8 7 8 9 11 9 8 4 10 11 9 9 7 5 5 4 4 4 5 5 10 13 6 8 12 12 13 15 15 17 23 31 36 42 46 48 48 50 48 48 47 45 44 41 37 34 32 32 33 35 37 39 41 43 43 43 44 43 43 44 44 44 43 43 42 41 40 41 41 41 40 41 41 40 40 39 38 38 39 39 39
4 6 9 10 7 6 7 10 10 12 8 7 4 7 6 6 6 4 5 5 2 4 5 5 7 4 14 6 8 10 10 11 15 18 17 19 28 35 38 42 45 46 47 46 46 45 42 40 35 29 27 28 31 33 35 35 37 40 42 42 43 43 43 43 43 43 42 42 41 40 41 42 41 42 42 42 42 41 40 39 39 38 38 39 39 40
1 3 5 8 6 6 8 8 9 14 10 4 5 4 3 2 1 3 2 1 2 6 7 5 7 4 13 7 4 3 5 9 13 14 14 17 25 30 32 38 42 40 41 42 42 40 37 33 27 22 23 27 29 32 34 35 38 41 42 42 43 43 43 42 42 42 41 40 41 41 42 42 42 43 44 44 44 43 42 40 40 39 39 40 40 40
5 0 2 5 7 6 5 3 5 10 7 1 3 2 5 4 4 4 1 3 2 9 6 9 11 6 8 5 3 4 5 7 8 8 11 15 20 28 33 37 37 34 36 37 35 34 31 26 20 19 22 25 28 31 34 36 39 40 41 41 42 42 42 42 41 41 40 40 41 41 41 41 42 43 44 45 46 45 45 44 43 41 41 41 41 42
7 3 2 5 8 6 4 2 1 0 1 2 2 0 3 5 4 5 4 3 2 10 5 11 13 10 10 6 1 5 6 6 7 7 11 13 16 26 32 33 31 30 32 32 30 29 28 23 18 18 22 25 29 31 33 36 39 40 40 41 42 42 42 42 41 40 40 41 41 41 41 41 43 43 44 45 45 45 46 45 44 44 43 42 42 43
5 8 7 3 7 9 6 3 3 5 1 4 3 3 0 5 4 3 3 1 4 9 6 9 8 7 11 7 4 9 12 10 8 10 14 14 16 25 30 27 25 27 30 28 25 24 25 22 17 18 21 23 27 30 32 35 38 39 39 40 41 42 42 41 41 41 41 41 41 41 42 42 43 43 44 44 44 45 45 45 45 44 44 44 44 44
4 7 5 3 3 10 10 5 3 3 4 7 5 5 5 3 3 4 4 2 6 9 6 5 6 4 7 4 8 12 12 12 8 12 20 21 22 28 30 27 23 25 27 24 20 18 19 19 15 16 19 21 25 28 31 34 36 37 38 40 41 41 41 41 41 41 41 41 41 41 42 43 43 43 43 42 43 43 44 45 45 44 43 43 43 43
4 9 4 6 3 7 11 11 11 5 4 7 5 6 7 6 5 5 4 6 7 6 5 1 4 5 3 2 9 11 9 12 13 16 19 22 26 29 30 33 31 27 25 22 18 14 14 15 14 15 18 21 23 27 29 31 33 35 37 39 41 41 41 41 41 40 40 40 41 41 42 42 42 42 41 41 42 42 43 44 44 44 43 43 43 42
4 9 4 4 3 8 11 13 11 3 1 4 4 4 7 7 5 4 7 9 6 3 4 3 4 6 4 4 6 4 6 10 13 14 13 17 24 24 25 30 32 29 25 21 16 11 10 12 12 14 17 20 22 25 27 28 30 33 35 37 39 39 40 40 40 40 40 40 41 42 41 41 41 41 41 41 41 42 42 42 43 43 43 43 43 42
5 7 3 2 3 7 9 7 7 5 2 1 3 4 5 3 5 5 8 7 5 5 6 6 8 6 4 6 5 4 7 6 7 8 8 13 18 17 19 23 25 26 24 20 13 9 9 9 10 13 16 18 19 21 23 24 26 29 32 35 37 38 39 40 40 40 41 42 42 42 41 41 41 41 41 41 41 41 41 42 42 42 43 43 43 43
6 8 8 9 8 7 5 3 3 5 6 5 3 6 3 2 2 3 3 3 5 9 7 8 14 9 2 6 7 7 8 7 8 8 7 11 13 13 16 19 20 18 15 14 12 9 8 7 8 10 13 14 15 17 19 21 23 26 29 33 35 36 38 39 40 41 42 43 43 43 42 42 42 41 41 41 41 42 42 42 42 42 43 43 43 44
3 5 9 9 7 4 1 1 4 5 4 5 3 3 3 2 3 2 3 3 7 10 6 8 15 12 5 6 6 5 4 5 7 7 8 10 11 14 18 18 15 13 11 10 8 6 5 6 8 8 9 12 13 15 17 18 20 23 26 31 33 34 35 37 40 42 43 45 45 44 43 43 43 43 43 43 44 44 44 43 43 43 43 43 44 44
1 3 6 5 3 3 3 1 4 4 3 1 1 1 1 3 4 4 3 3 5 10 8 7 10 8 5 6 6 8 8 4 4 8 7 6 8 13 16 14 12 10 8 7 5 4 4 5 7 8 8 10 11 14 15 17 18 19 22 27 31 33 35 38 40 42 44 46 46 46 46 45 45 45 45 45 46 46 46 45 45 45 44 44 44 44
1 3 5 4 3 2 2 4 5 4 2 1 2 4 3 2 2 2 3 2 3 7 7 7 8 6 5 5 5 7 7 4 4 7 6 7 7 10 12 10 9 9 9 9 7 6 6 7 7 7 8 10 13 15 16 17 17 18 22 25 28 32 36 39 41 44 45 46 47 48 48 48 47 48 48 48 48 48 48 47 47 47 46 46 45 45
1 2 3 4 5 6 7 6 6 6 5 4 5 6 6 6 5 5 6 5 4 5 5 6 7 5 4 5 5 7 7 6 8 8 8 10 12 13 13 10 7 7 9 10 11 12 12 11 12 11 11 13 16 17 18 18 19 20 22 25 28 32 35 38 42 45 47 48 49 50 50 50 50 51 51 51 51 51 50 49 49 49 49 48 47 46
4 3 4 6 7 8 11 10 7 8 8 6 5 5 5 5 5 6 8 6 4 4 3 5 7 4 4 11 13 13 12 10 13 14 11 13 18 18 18 18 14 13 14 17 20 21 19 16 15 15 16 17 19 21 21 21 21 21 23 26 30 34 36 38 40 44 48 50 51 52 52 52 53 53 53 53 53 53 52 51 51 52 51 50 49 48
5 3 5 7 6 7 11 13 13 9 6 6 6 5 6 6 6 8 6 4 5 6 6 8 11 7 5 13 17 16 16 13 16 20 16 14 20 22 23 27 26 24 25 28 30 31 30 26 23 22 22 20 20 21 24 23 23 24 26 28 32 36 39 40 41 44 48 51 52 53 54 55 55 56 56 56 55 54 54 53 53 53 52 51 51 50
5 4 5 7 6 5 6 7 10 8 5 6 6 6 9 11 12 10 5 3 6 10 12 13 12 9 8 13 15 16 20 19 20 27 24 18 20 24 26 29 33 35 37 38 38 38 37 33 30 28 24 20 17 19 22 25 28 30 30 31 34 37 40 42 44 47 49 50 52 54 55 56 57 57 57 56 56 56 55 54 54 54 53 52 52 51
5 5 5 6 7 7 8 7 7 6 4 4 4 5 7 9 11 10 7 6 9 12 15 14 12 10 9 12 15 18 24 24 23 27 26 20 21 25 27 28 33 38 41 43 42 41 41 39 36 32 24 20 20 22 26 32 37 38 37 37 38 39 40 42 45 48 50 52 52 53 55 57 58 59 59 59 58 57 56 56 55 55 55 54 53 52
2 4 6 10 12 12 13 12 7 4 4 5 7 10 10 8 8 7 6 9 11 11 13 13 13 15 13 12 16 19 21 23 24 24 21 20 23 27 30 33 33 34 37 39 38 38 39 41 41 37 30 28 29 32 34 37 41 42 41 42 43 42 42 43 45 47 50 52 52 52 53 55 56 56 59 61 60 58 57 57 56 56 56 54 53 52
3 6 10 15 18 18 18 19 16 13 13 15 16 18 17 14 12 11 12 14 12 11 13 13 14 17 14 12 17 21 22 23 22 20 20 25 30 32 35 36 33 33 36 35 34 35 37 39 40 38 37 38 39 40 41 44 46 45 44 46 49 47 45 44 46 49 51 50 50 50 50 50 50 51 54 58 59 59 58 57 57 56 55 54 53 52
4 9 13 15 19 19 19 21 21 19 18 18 19 20 20 19 19 19 20 20 17 16 17 16 17 20 16 15 19 22 22 21 21 25 31 36 37 37 38 37 35 38 39 34 33 35 37 39 40 39 41 43 44 44 46 48 48 46 46 48 50 49 47 45 46 49 50 49 48 48 47 47 48 49 51 54 56 58 58 57 57 55 54 53 52 51
2 6 11 15 17 17 18 20 21 21 21 20 20 21 20 22 24 24 24 24 23 24 23 22 24 24 19 18 20 22 25 26 28 34 38 39 40 42 42 36 31 32 32 30 31 32 34 37 39 40 42 43 43 44 44 44 44 46 47 47 48 50 49 46 46 46 46 46 46 46 46 48 49 50 50 52 53 55 57 57 56 54 52 51 50 50
3 4 7 12 13 12 16 19 19 20 20 21 21 21 22 24 25 25 24 22 22 25 26 27 27 22 19 20 23 26 31 31 30 31 34 38 40 36 29 26 27 30 32 33 33 33 32 33 35 39 41 42 42 43 44 44 44 45 47 47 48 49 46 45 46 45 45 46 46 47 49 51 51 50 50 50 52 54 56 56 54 52 50 49 49 49
4 4 6 9 9 8 11 16 18 18 19 21 22 23 24 25 23 22 21 20 21 23 24 25 21 16 16 18 20 23 24 24 22 23 24 26 24 25 27 29 32 34 35 37 39 39 38 37 35 34 37 39 40 41 44 47 48 48 50 50 46 43 42 45 48 47 47 48 49 51 53 53 53 52 51 50 51 53 53 53 52 50 49 48 48 48
5 5 5 7 8 8 9 13 16 15 14 14 16 22 26 25 24 22 21 21 22 20 18 16 12 9 11 12 13 15 15 15 14 11 16 23 28 30 29 28 30 33 35 37 40 42 42 43 42 39 35 34 35 37 39 44 51 53 49 44 41 41 43 46 47 48 49 49 51 54 54 54 53 53 52 50 50 50 50 50 49 48 47 47 47 47
8 9 8 7 8 9 12 14 13 11 10 7 7 14 22 25 25 24 21 20 17 11 9 8 7 13 16 16 16 15 16 19 14 18 30 31 30 31 32 31 32 34 36 38 40 43 44 44 45 45 42 37 32 32 33 37 45 48 43 39 42 46 47 44 43 45 48 49 51 53 52 52 53 53 51 50 48 48 48 47 47 46 46 46 46 47
12 12 9 8 8 10 12 13 11 9 9 5 2 3 7 11 12 15 15 11 9 12 14 14 16 17 16 16 17 18 25 30 15 22 35 37 35 36 37 37 39 39 39 41 42 44 45 44 46 47 46 44 41 34 30 33 37 39 40 42 46 48 44 40 39 40 42 44 47 48 49 50 51 51 50 48 47 46 45 45 45 45 45 45 45 46
12 11 9 7 8 8 9 11 12 10 6 2 6 13 13 9 13 14 7 6 13 13 11 13 14 14 14 17 20 24 35 35 12 17 36 42 39 39 38 38 41 41 40 42 43 44 45 44 45 47 47 46 45 43 37 31 31 34 38 40 43 42 37 33 33 34 36 38 41 43 45 47 47 48 47 46 45 45 44 44 44 44 44 44 44 44
10 10 8 7 7 7 10 13 14 14 10 3 3 10 8 4 7 8 3 5 12 12 11 12 13 14 15 17 22 30 36 28 8 11 36 46 42 40 37 37 40 41 42 43 43 44 44 44 45 46 46 46 44 44 44 38 28 25 27 31 34 33 29 25 25 27 30 34 36 39 41 43 44 44 44 44 44 43 43 42 42 43 43 43 43 44
2 5 4 5 4 5 10 11 10 12 9 2 3 5 4 6 9 8 7 2 8 12 13 13 14 17 16 15 21 28 27 18 7 12 33 45 42 40 40 41 42 43 44 45 45 46 47 46 47 47 46 45 43 42 43 41 34 26 20 21 22 22 20 18 19 22 26 29 32 35 37 39 41 41 42 43 42 41 41 41 41 42 41 41 42 42
5 2 2 4 5 6 9 9 7 7 2 5 7 7 10 18 16 6 5 3 7 13 15 14 14 15 15 16 21 22 17 12 9 13 31 42 39 38 42 44 44 46 46 46 46 46 47 48 48 48 47 46 43 41 40 40 38 31 25 23 21 20 20 20 19 20 22 24 27 31 34 36 38 40 41 41 40 39 40 40 40 40 40 40 40 39
7 3 3 5 7 8 9 8 7 4 2 6 10 10 18 23 14 2 4 2 8 11 13 16 14 12 14 17 17 14 10 9 12 22 36 40 37 38 40 41 43 45 45 46 47 47 48 48 48 49 49 47 45 41 37 37 37 34 30 28 26 25 25 23 22 21 20 20 23 26 29 32 35 37 39 39 39 39 39 39 39 38 38 38 38 38
3 2 3 4 6 7 8 8 6 3 1 6 11 17 24 19 4 2 4 6 8 9 12 16 14 14 16 15 12 9 10 14 20 31 39 38 37 41 42 39 41 43 42 43 45 45 47 48 48 48 48 46 45 42 37 35 35 34 32 30 28 28 28 25 23 22 21 21 21 22 26 29 31 34 35 36 37 37 38 37 37 37 37 38 38 39
2 2 3 3 4 5 4 5 7 5 2 11 18 22 20 10 1 3 6 5 6 10 12 14 14 16 18 16 14 15 19 22 25 30 34 35 37 41 42 40 41 42 42 42 43 43 45 47 48 48 48 46 44 42 39 36 34 33 33 31 30 29 29 26 23 21 22 22 21 21 23 26 29 31 32 34 35 36 36 37 37 37 37 38 39 39
3 4 4 4 4 5 5 7 9 7 5 17 20 15 9 3 6 10 7 3 5 10 13 14 16 19 20 20 22 23 25 26 27 28 32 35 36 36 37 38 37 39 41 42 43 43 43 44 46 47 46 46 44 41 39 37 34 32 31 30 29 30 30 28 25 24 23 22 22 21 22 24 26 28 30 32 34 35 36 37 37 38 38 38 39 40
2 3 5 4 3 4 5 6 5 4 10 18 13 5 4 8 11 10 6 5 6 8 10 13 18 21 21 22 25 27 27 28 28 28 30 33 33 34 35 34 33 35 38 39 40 42 42 43 45 45 45 45 43 40 37 35 33 34 32 30 29 30 30 30 29 28 27 25 24 23 22 23 25 27 29 30 32 33 35 37 38 38 38 39 40 42
4 4 4 4 4 4 5 7 10 11 18 23 18 9 10 15 15 13 9 8 9 11 12 14 20 23 23 23 25 28 28 28 29 29 30 31 32 33 33 33 35 36 37 39 40 42 42 43 44 45 45 44 42 40 38 34 33 34 33 32 31 31 31 31 32 32 30 28 26 26 25 25 26 27 28 29 31 33 35 37 38 39 40 40 42 44
7 8 5 2 5 7 7 12 14 13 18 27 26 17 14 17 18 15 11 10 15 18 17 17 20 23 23 24 25 27 29 29 31 33 32 31 34 34 34 36 38 37 37 39 41 42 42 43 44 45 46 45 43 41 40 37 35 35 35 34 33 32 32 32 32 33 32 30 29 28 27 27 28 28 29 30 31 33 35 37 39 40 41 42 44 45
8 12 8 4 6 7 7 9 10 12 20 28 26 20 18 18 17 14 12 14 18 21 22 22 22 22 24 25 25 27 30 31 33 35 35 35 36 37 37 38 38 39 39 40 41 41 42 43 45 46 48 48 45 43 43 41 39 38 38 37 34 33 32 32 32 32 33 32 31 29 29 29 29 30 31 32 32 32 35 37 40 42 43 44 45 47
5 6 5 6 8 8 8 12 16 21 28 31 30 26 22 19 18 17 17 19 20 21 22 21 21 22 25 26 25 25 28 32 33 34 36 38 40 40 41 41 41 42 43 43 42 42 43 44 46 48 50 50 48 45 44 43 42 41 40 40 37 34 33 33 33 32 33 33 32 32 31 30 30 31 33 34 35 35 36 37 40 43 44 45 46 47
7 4 5 6 7 7 10 12 16 19 22 26 29 26 22 21 21 20 22 22 22 22 22 21 22 24 25 27 27 25 26 32 35 34 34 38 42 43 43 45 46 48 48 47 46 45 45 46 47 48 50 52 50 47 45 44 43 42 41 40 38 34 33 34 34 34 34 35 34 34 33 33 33 33 34 36 37 38 39 40 41 43 45 45 46 47
6 7 7 6 5 8 9 10 12 10 9 16 22 21 20 21 21 19 23 24 23 22 22 23 27 29 28 29 29 27 28 34 38 37 36 39 42 44 45 46 48 51 52 51 50 49 48 48 48 49 51 53 52 50 47 45 43 43 42 41 38 35 33 33 34 35 36 36 37 37 35 35 35 35 36 37 38 40 41 42 43 45 46 47 47 48
11 12 11 7 7 12 15 17 17 12 11 20 27 23 20 21 20 21 23 22 21 22 23 24 28 31 32 32 31 29 32 37 40 40 39 41 44 46 47 48 49 51 54 53 52 52 51 50 50 51 52 53 52 51 50 48 46 43 42 42 40 38 36 35 35 36 38 38 39 39 37 37 37 37 38 39 40 41 42 43 45 46 48 49 49 48
Wind_Direction
178 162 157 200 216 226 226 205 220 240 253 267 263 249 246 253 263 253 261 263 220 247 248 231 248 252 250 251 251 262 267 266 264 262 260 259 260 260 261 262 263 266 270 274 276 276 275 273 272 269 265 260 257 256 255 253 252 252 250 247 244 241 239 236 235 233 230 229 226 226 226 225 225 225 225 226 226 227 226 226 228 230 230 231 232 232
171 187 211 213 218 225 228 214 225 243 253 258 253 262 264 254 266 260 262 273 227 219 257 242 254 260 251 251 251 257 265 266 262 261 259 258 257 257 259 261 264 266 270 274 275 274 273 272 270 268 265 260 257 256 255 254 254 252 248 246 244 241 239 237 236 234 233 233 233 233 233 230 227 226 226 226 227 227 226 226 227 228 230 230 231 232
189 218 224 222 226 235 250 209 219 238 238 245 245 262 268 254 273 270 252 262 241 202 262 258 259 264 256 252 250 250 255 258 259 258 259 259 257 256 257 259 263 265 268 271 273 273 272 270 269 265 262 261 260 258 256 254 252 248 246 245 242 240 239 237 236 235 235 236 237 237 237 234 230 228 229 229 229 229 228 227 227 227 229 230 231 232
224 230 227 228 228 234 257 231 216 260 249 227 227 247 263 251 265 268 244 257 250 204 261 274 269 268 267 261 248 243 248 254 260 260 261 262 258 256 257 258 262 265 267 268 270 272 271 270 268 264 262 261 258 254 251 249 246 245 245 244 241 239 238 236 235 235 234 234 234 233 233 234 233 231 230 230 230 230 229 228 228 228 228 229 231 231
245 230 217 217 207 211 236 239 220 262 264 230 209 221 251 248 245 254 269 303 293 257 259 287 286 274 248 252 252 241 246 253 259 261 263 263 260 258 259 259 260 263 265 266 268 271 270 270 269 267 266 263 256 251 249 247 245 243 244 243 240 239 238 236 234 232 231 231 230 229 227 228 229 230 229 229 229 228 228 229 228 228 229 229 230 231
252 231 204 186 192 208 220 234 208 206 258 256 202 211 240 247 250 259 281 314 310 281 266 295 295 284 204 224 249 246 249 256 255 256 259 261 261 259 258 259 260 261 264 265 266 269 269 270 270 268 266 263 258 254 251 247 244 242 242 241 239 238 236 234 232 230 230 231 231 230 228 227 226 226 226 227 228 228 228 229 228 228 229 229 230 230
242 217 202 190 199 205 207 232 210 190 244 272 214 209 233 246 255 258 270 289 262 267 276 115 280 285 255 213 245 246 242 250 252 250 251 255 258 257 256 259 260 261 264 265 267 269 270 271 269 268 268 265 260 254 248 243 239 238 239 239 238 236 235 233 231 230 230 231 232 234 234 234 232 229 228 228 229 230 231 231 230 228 229 229 230 230
191 200 208 207 203 194 195 229 215 183 216 268 210 192 215 235 246 231 216 227 232 284 285 153 159 273 280 241 212 227 231 243 251 249 250 252 254 254 254 258 261 264 266 267 269 270 271 272 271 272 272 266 257 250 243 238 235 236 237 237 236 235 234 233 231 230 231 232 234 236 237 237 238 236 236 234 233 233 233 232 232 231 230 230 230 230
142 190 216 204 197 200 205 221 200 169 207 254 159 152 178 204 220 176 179 224 276 341 287 198 143 255 283 259 187 219 226 230 243 245 248 249 249 251 253 256 261 266 269 268 270 272 272 273 275 278 272 260 251 245 241 238 236 235 235 235 234 233 233 232 231 231 232 234 236 238 238 238 239 239 239 238 237 236 234 233 232 232 231 231 230 230
163 195 193 166 179 218 218 225 185 171 208 231 128 107 70 95 77 88 184 205 31 306 266 198 150 229 284 286 144 195 222 226 238 240 247 251 252 255 258 260 262 266 271 271 271 273 273 274 276 273 262 252 246 242 239 236 234 234 234 233 232 232 232 232 231 232 233 235 236 238 238 239 239 238 237 238 238 238 237 235 233 232 232 232 231 230
252 93 104 176 206 210 191 208 185 183 211 110 112 327 13 18 22 47 355 71 33 279 247 175 173 194 274 288 150 184 215 231 241 246 258 260 258 259 260 263 264 267 270 273 273 275 275 275 271 259 249 244 240 237 235 233 232 233 234 233 232 232 232 232 232 233 234 235 236 237 238 239 240 239 238 238 237 237 237 237 236 234 233 233 232 231
259 219 212 215 201 168 128 197 253 356 205 113 136 325 6 328 360 27 349 57 220 261 226 178 181 186 235 269 254 238 244 235 225 232 255 260 259 259 257 259 263 268 273 275 276 277 277 274 264 249 241 236 234 232 232 231 231 233 233 233 232 231 231 232 232 233 234 235 236 237 238 238 239 239 239 240 240 240 239 239 238 237 235 234 233 231
278 228 224 209 186 176 167 215 303 356 85 139 128 129 267 303 338 347 301 157 222 255 235 189 178 203 240 256 273 272 275 259 225 217 237 248 258 259 256 257 262 271 277 278 277 278 279 277 265 245 236 231 230 230 229 230 231 233 234 232 231 232 232 232 233 233 234 235 235 236 237 238 239 239 241 242 242 243 243 242 240 239 238 236 234 232
296 265 211 137 222 198 176 179 239 277 190 173 159 155 171 216 248 249 260 266 255 264 259 186 166 246 279 268 228 237 257 262 245 234 237 242 255 263 267 268 269 274 278 280 280 281 280 277 262 239 232 229 228 228 228 230 233 235 234 232 232 232 233 233 234 234 234 235 236 237 238 239 239 240 241 242 242 242 243 243 243 243 242 240 238 236
270 290 205 158 227 190 180 207 215 196 175 195 170 150 184 193 192 204 221 247 253 272 291 206 173 220 245 250 227 220 245 267 267 260 251 248 255 263 269 269 268 273 279 284 287 286 277 268 252 230 225 228 229 229 231 232 234 235 234 232 231 231 231 232 233 234 234 234 235 236 238 239 240 240 241 241 242 242 242 243 243 244 245 245 243 241
231 275 244 181 180 159 182 221 215 162 353 234 133 132 221 208 176 213 238 241 252 303 295 238 218 226 229 272 265 259 284 274 268 274 272 268 268 269 271 272 272 275 279 284 285 273 262 256 238 221 220 226 230 231 233 235 236 237 235 232 231 232 232 232 231 231 231 232 234 235 235 236 237 238 238 239 239 240 241 242 243 244 246 247 246 244
245 273 276 243 212 186 200 216 190 170 206 223 134 185 231 167 152 227 259 260 266 272 260 247 260 275 298 286 285 336 330 310 309 319 309 296 295 291 288 288 284 281 278 275 267 249 250 249 224 213 218 225 231 235 236 237 240 241 239 234 232 232 233 232 231 230 230 232 233 233 233 233 233 233 233 234 235 237 239 240 241 244 246 247 247 245
253 271 269 265 271 251 217 182 205 203 163 135 185 220 216 80 141 200 247 266 256 254 253 255 263 272 287 276 297 349 350 333 335 351 350 332 334 332 323 314 298 287 274 259 248 235 232 229 218 216 224 233 238 241 242 243 245 245 244 240 237 236 235 232 230 230 231 232 232 231 230 230 230 230 231 233 235 237 238 238 239 241 244 246 247 246
260 274 271 276 293 309 51 124 273 266 189 166 203 206 147 184 224 188 187 217 237 248 246 241 258 265 238 244 281 296 286 302 330 13 18 355 357 360 354 342 317 294 267 253 256 255 239 232 239 240 243 247 246 244 244 245 247 247 247 245 242 242 242 238 235 233 233 233 232 231 229 229 229 229 231 233 235 237 237 237 238 240 242 245 246 246
221 250 261 277 316 350 15 221 233 259 260 254 299 295 177 192 193 190 196 187 224 248 253 238 246 261 245 219 219 226 220 233 347 18 5 334 357 7 4 359 346 335 313 298 305 298 275 261 261 263 269 269 260 252 246 244 249 253 252 250 247 246 244 242 240 237 235 235 233 232 231 230 230 230 231 233 235 236 236 237 238 240 241 244 245 246
214 259 259 278 295 301 287 224 199 206 230 213 227 247 252 231 232 262 238 174 201 244 258 253 245 252 258 228 213 231 220 214 334 350 318 295 322 343 351 357 353 351 345 332 332 333 320 304 292 282 279 279 269 259 253 251 254 256 255 254 253 250 246 242 240 239 238 237 236 235 234 232 231 232 233 235 235 237 237 238 240 241 242 243 245 246
196 274 276 296 283 271 270 242 195 202 223 211 216 235 237 232 244 268 251 217 207 235 247 260 259 256 275 269 268 279 270 275 302 296 274 279 287 297 316 332 331 317 311 306 307 311 314 314 310 297 284 280 271 260 253 254 255 257 260 260 256 253 250 247 245 242 241 239 237 237 235 234 234 235 236 236 236 237 238 239 241 242 243 243 244 246
178 198 242 257 253 259 277 276 246 229 231 231 227 223 231 225 212 236 247 236 235 265 279 277 263 245 280 283 282 286 283 282 285 278 271 277 281 288 300 306 307 297 287 287 291 293 296 297 299 294 282 277 275 264 252 251 256 262 268 270 263 257 254 251 250 248 245 242 240 238 236 236 237 237 238 238 238 239 239 241 242 243 244 244 245 246
179 173 226 242 248 251 268 282 278 255 221 240 247 217 218 226 221 232 238 223 237 260 270 270 261 237 241 269 273 280 282 278 274 272 267 266 276 285 291 294 297 294 290 289 287 287 288 288 290 292 282 275 280 275 262 257 262 267 271 273 271 267 262 256 252 251 249 246 243 241 239 240 239 239 239 239 240 241 242 243 244 245 246 246 246 246
218 202 206 238 258 250 250 271 273 255 212 224 234 209 222 233 237 250 251 215 237 242 241 250 258 244 232 254 269 280 282 278 272 267 262 257 267 276 281 288 292 291 292 291 287 287 289 288 291 294 283 271 277 282 276 271 269 268 270 275 277 274 270 263 256 252 252 249 246 243 242 242 241 240 240 240 242 243 244 245 245 246 247 246 246 245
231 222 189 228 242 238 244 242 242 247 224 213 217 218 235 233 234 252 263 251 248 241 237 244 257 257 246 252 264 270 272 274 274 270 266 261 263 270 276 280 281 282 283 285 286 289 292 294 297 295 281 264 268 276 280 280 275 268 268 275 279 275 271 268 262 256 254 252 249 247 245 243 243 242 242 242 243 244 246 246 246 247 246 246 246 245
205 245 211 227 236 239 249 249 245 255 250 252 257 254 254 245 233 251 260 251 256 258 248 246 255 260 254 251 259 261 264 269 272 274 275 273 271 273 276 276 275 275 275 278 281 285 289 293 294 288 274 265 270 277 281 284 280 272 268 275 279 275 270 268 265 260 257 254 252 250 248 247 247 248 248 246 245 245 246 247 247 247 247 246 245 244
202 256 237 233 239 240 248 254 255 255 254 256 262 262 262 257 246 249 252 251 260 269 260 251 256 262 258 252 258 262 264 267 271 278 282 280 277 276 277 278 278 277 277 279 283 286 289 290 287 280 273 270 273 278 283 287 284 276 272 277 279 274 269 267 265 263 260 256 252 250 250 249 250 252 252 250 247 245 246 247 247 247 247 245 245 244
232 252 246 241 244 240 242 250 251 252 254 253 254 258 259 257 253 251 253 254 253 255 258 256 255 259 257 248 250 255 260 265 270 277 280 281 281 281 281 281 281 281 283 287 289 288 288 286 282 277 276 276 276 278 282 284 282 277 276 277 276 273 269 265 265 266 261 254 251 250 251 251 250 251 251 250 248 246 245 246 246 246 246 245 244 243
270 253 251 253 256 248 242 244 245 247 251 250 250 250 250 253 253 251 252 255 254 256 261 262 258 257 256 252 250 252 258 266 271 274 276 278 280 281 285 290 296 302 310 315 312 306 299 293 287 283 281 280 278 278 281 280 278 276 278 278 277 277 273 264 262 262 257 252 252 253 253 251 249 250 250 249 248 246 245 245 244 245 245 245 243 242
275 272 273 270 267 256 249 248 243 242 245 248 249 247 247 249 250 251 253 253 256 259 260 260 260 259 257 256 256 256 258 262 268 271 273 277 283 294 313 338 354 356 355 354 348 342 334 321 309 299 294 289 284 283 283 282 281 279 278 279 280 279 274 264 259 256 250 250 252 252 251 249 247 248 249 248 247 245 244 243 243 243 243 243 242 240
295 294 289 278 270 259 251 249 250 250 247 247 247 246 246 245 244 247 247 244 247 252 255 258 260 263 268 265 265 267 268 268 271 276 286 302 328 358 14 19 16 10 6 3 1 360 359 353 342 325 310 301 294 292 291 290 291 286 281 280 281 280 273 265 260 254 248 250 252 249 248 247 246 245 246 247 247 245 243 242 242 242 242 242 241 239
265 271 280 276 274 276 268 263 265 263 251 244 239 237 239 240 242 244 244 245 247 249 256 263 267 298 326 335 333 326 321 315 314 341 11 14 17 19 17 13 9 4 1 359 357 357 358 358 357 350 337 319 300 292 293 294 293 289 284 284 286 284 278 272 265 256 250 250 252 250 248 247 246 245 245 246 247 245 243 242 241 242 242 241 239 237
256 262 270 274 279 284 287 291 286 270 259 253 225 229 239 243 246 248 251 257 264 282 312 327 2 11 11 12 4 354 339 327 343 47 47 33 19 8 2 1 359 355 353 350 348 349 349 349 350 352 352 345 324 299 288 290 293 291 286 285 284 282 279 275 269 260 253 253 253 251 249 247 246 245 244 245 245 244 242 241 241 241 241 239 237 236
264 267 267 266 272 276 282 285 273 259 265 266 93 8 290 271 277 282 276 285 329 358 7 19 24 17 12 3 358 355 337 325 344 56 40 22 13 4 355 351 351 348 347 346 343 343 344 343 343 343 346 348 346 332 305 288 287 289 286 283 282 279 276 272 267 262 258 257 257 253 250 248 245 244 244 243 243 242 241 240 240 240 239 238 236 236
248 258 260 256 260 269 271 263 257 267 275 190 69 28 10 3 359 347 332 22 24 10 9 23 18 11 9 1 356 354 341 328 335 49 24 9 4 359 352 348 347 345 343 342 341 341 341 340 339 340 339 341 347 349 339 316 294 286 285 285 283 277 272 269 266 263 262 261 260 256 252 248 246 244 243 242 242 241 239 239 239 239 238 236 235 234
239 248 260 258 242 247 260 256 259 272 269 224 49 16 12 357 335 321 272 60 32 10 3 16 13 7 8 1 354 351 344 334 320 9 3 359 355 353 350 346 343 341 340 340 339 340 342 341 339 339 339 339 343 348 350 345 332 310 297 293 287 275 268 269 272 272 270 267 264 259 253 249 246 245 243 241 240 239 239 239 239 238 237 234 233 231
260 239 264 277 250 257 272 270 274 273 265 311 333 305 324 302 278 259 226 182 36 14 3 11 12 6 3 356 354 354 348 342 335 344 348 348 346 346 344 341 340 339 337 337 337 337 338 339 339 338 339 341 343 345 347 348 349 349 338 320 304 290 285 292 296 292 284 276 268 260 254 250 247 244 242 241 240 240 239 239 238 238 236 234 233 232
348 273 259 282 277 290 283 277 290 277 266 20 328 302 329 315 297 275 218 187 44 13 360 11 13 5 1 352 352 357 353 343 335 330 336 338 338 338 337 335 335 334 333 333 333 333 333 334 335 335 336 339 341 344 345 343 342 346 348 340 330 323 321 321 316 307 297 285 273 263 256 252 248 245 243 241 240 240 240 239 238 237 235 233 232 233
350 342 330 292 280 290 286 276 286 279 69 4 329 337 338 318 304 290 240 266 34 13 359 8 4 356 360 353 350 358 354 336 318 316 325 328 326 328 330 329 329 329 328 328 328 329 330 331 331 332 332 335 337 339 342 340 336 336 338 338 337 336 333 329 320 313 305 293 280 269 261 256 252 248 245 243 242 241 240 239 238 237 235 233 232 232
335 324 301 272 268 285 284 281 286 261 95 10 344 348 345 333 336 108 284 317 7 358 353 2 353 345 348 343 341 338 318 310 308 310 317 321 321 324 325 324 325 324 324 324 325 326 327 327 328 328 327 329 331 333 337 337 334 333 332 332 335 335 331 327 323 320 314 303 289 275 265 259 255 251 249 247 245 243 241 241 240 238 236 234 232 231
311 299 272 253 279 298 285 289 289 262 39 15 352 347 356 4 19 309 312 322 333 328 340 349 340 336 333 325 321 315 307 309 310 310 315 318 319 321 322 323 324 323 323 323 323 324 326 325 324 324 323 324 326 328 331 331 329 330 330 330 333 331 324 320 318 318 317 312 302 288 273 263 257 253 251 248 246 244 242 241 240 238 236 234 233 231
298 298 288 264 277 288 272 276 276 260 343 359 348 348 18 47 272 296 311 282 281 309 329 334 329 329 325 318 315 313 310 313 313 313 315 316 316 318 319 321 322 321 322 323 323 325 326 324 321 320 319 319 321 324 327 327 324 323 325 327 329 326 322 320 317 313 312 311 308 301 288 276 267 260 255 251 248 245 243 241 239 237 234 232 231 229
265 252 269 268 282 282 260 262 273 285 325 335 335 325 321 298 275 271 269 249 263 298 317 319 319 320 318 314 313 313 312 312 312 313 314 314 316 318 317 318 319 319 320 321 321 323 324 322 320 318 315 314 316 319 322 323 321 318 317 320 323 321 320 321 318 314 310 305 302 299 293 286 278 270 263 258 253 248 244 242 239 236 234 231 229 228
211 203 245 272 277 259 233 259 289 305 306 307 307 294 291 290 274 255 250 262 282 299 307 308 311 315 316 315 311 310 309 309 310 313 314 314 315 315 314 315 316 317 318 318 318 320 321 319 318 316 313 311 312 313 314 316 316 313 311 314 316 313 313 314 313 313 311 305 299 293 287 283 278 273 269 264 259 254 250 245 241 237 234 231 228 227
242 252 267 276 257 258 253 257 272 289 289 290 295 295 285 279 268 254 254 277 296 305 307 305 305 308 311 311 309 305 305 307 310 312 313 313 312 312 312 312 313 315 315 315 316 317 316 315 314 313 311 309 308 308 308 307 307 306 305 309 310 308 306 305 306 307 307 304 300 293 285 280 275 270 266 262 259 257 254 250 246 241 236 232 229 227
249 243 243 243 248 260 266 255 259 276 280 282 288 290 280 267 253 243 259 285 297 301 302 302 303 304 306 306 304 301 301 305 308 311 312 313 311 310 311 311 312 313 312 312 313 314 313 312 310 309 308 307 306 306 304 302 300 299 300 302 303 302 299 297 297 298 299 298 297 292 285 281 276 271 266 260 256 255 253 250 246 242 238 235 231 228
242 206 202 236 240 235 252 267 271 272 274 277 280 279 270 253 240 246 269 286 292 293 292 293 296 299 302 303 300 298 299 303 305 307 310 312 311 310 311 310 310 311 311 312 313 313 312 311 309 307 306 305 304 305 303 299 296 295 296 296 296 295 294 291 289 290 290 290 290 287 283 278 274 271 267 261 257 255 253 250 246 242 241 241 238 234
235 221 219 238 250 255 261 269 271 272 274 274 271 268 263 253 248 258 276 287 291 291 291 293 296 297 299 300 299 296 296 301 305 306 307 309 310 309 310 311 311 312 312 312 312 312 312 310 308 306 305 302 302 303 301 297 293 291 290 291 291 290 289 287 286 283 281 281 281 281 279 275 270 267 264 260 256 254 252 249 247 245 244 244 243 241
216 248 249 236 251 266 261 252 252 261 276 273 268 269 268 262 261 271 285 292 293 292 294 298 300 302 303 303 303 300 298 302 307 308 306 306 307 307 308 310 311 312 313 312 311 311 311 309 307 306 304 302 302 301 298 295 292 288 285 284 286 286 285 285 284 281 277 274 273 273 273 271 268 264 261 258 255 251 248 245 243 241 241 240 238 238
217 236 245 240 245 254 260 261 255 243 255 273 278 278 272 268 276 288 292 292 292 293 296 299 300 303 306 307 306 304 301 305 309 309 307 306 306 307 308 308 308 309 310 310 309 308 308 307 306 305 303 302 301 300 298 295 292 288 283 280 279 280 280 279 278 276 273 270 269 269 269 268 266 264 260 257 254 250 246 243 240 238 237 236 235 234
Height
1517 1521 1523 1520 1516 1513 1514 1516 1513 1509 1512 1515 1516 1517 1515 1514 1510 1503 1499 1494 1497 1496 1488 1487 1482 1475 1475 1471 1467 1465 1464 1463 1461 1460 1457 1454 1453 1450 1448 1445 1443 1441 1434 1433 1435 1435 1436 1436 1437 1439 1440 1443 1445 1446 1448 1449 1451 1451 1452 1453 1454 1457 1460 1463 1465 1467 1469 1471 1474 1476 1477 1479 1480 1482 1484 1486 1489 1491 1493 1496 1498 1499 1501 1502 1503 1504
1516 1519 1518 1511 1507 1508 1509 1511 1511 1512 1513 1514 1516 1516 1514 1514 1506 1497 1496 1493 1494 1495 1484 1481 1479 1471 1470 1467 1464 1464 1462 1459 1456 1455 1451 1447 1447 1445 1443 1440 1436 1434 1431 1429 1430 1429 1430 1430 1431 1434 1435 1437 1439 1441 1443 1443 1445 1446 1447 1448 1450 1453 1455 1457 1460 1463 1465 1467 1469 1471 1473 1476 1477 1479 1481 1483 1485 1488 1490 1493 1494 1496 1497 1498 1500 1501
1518 1516 1511 1506 1505 1508 1509 1510 1512 1512 1513 1515 1517 1517 1515 1513 1504 1494 1493 1490 1491 1493 1483 1479 1477 1466 1463 1462 1460 1461 1458 1453 1450 1449 1445 1441 1442 1441 1438 1434 1430 1429 1427 1425 1424 1423 1424 1425 1426 1428 1429 1431 1433 1435 1438 1439 1440 1441 1442 1443 1445 1448 1450 1453 1456 1459 1462 1464 1467 1469 1472 1474 1475 1477 1479 1481 1483 1485 1487 1489 1491 1492 1494 1495 1497 1499
1513 1510 1505 1504 1506 1509 1509 1509 1511 1512 1513 1514 1515 1517 1513 1508 1505 1495 1489 1486 1488 1489 1482 1479 1474 1462 1460 1458 1456 1456 1450 1446 1445 1443 1440 1438 1437 1435 1431 1430 1428 1424 1421 1419 1418 1418 1419 1420 1421 1422 1424 1426 1428 1430 1432 1433 1435 1436 1437 1438 1440 1443 1446 1449 1452 1456 1459 1462 1465 1467 1469 1472 1474 1475 1477 1479 1480 1482 1483 1485 1487 1488 1490 1491 1493 1495
1500 1500 1500 1502 1505 1507 1508 1508 1510 1513 1511 1506 1509 1513 1506 1501 1501 1495 1489 1487 1487 1485 1482 1481 1471 1454 1452 1453 1448 1448 1446 1443 1443 1440 1436 1434 1430 1428 1426 1425 1423 1419 1415 1413 1412 1413 1415 1416 1416 1417 1419 1421 1423 1425 1426 1428 1429 1431 1433 1434 1437 1440 1442 1446 1449 1453 1456 1458 1461 1463 1466 1469 1470 1472 1474 1474 1474 1475 1478 1479 1482 1484 1486 1488 1490 1492
1496 1497 1498 1500 1503 1504 1506 1506 1509 1512 1505 1497 1501 1503 1495 1493 1495 1494 1493 1494 1492 1488 1482 1484 1476 1447 1437 1446 1445 1443 1444 1441 1439 1437 1432 1427 1423 1423 1421 1417 1415 1413 1411 1410 1409 1410 1411 1411 1412 1413 1416 1417 1417 1419 1421 1423 1425 1427 1429 1431 1434 1437 1440 1443 1446 1450 1452 1454 1456 1458 1461 1463 1464 1466 1466 1466 1467 1469 1472 1474 1478 1481 1483 1485 1487 1489
1493 1494 1494 1496 1499 1500 1504 1506 1504 1506 1502 1494 1493 1492 1488 1491 1494 1494 1496 1497 1495 1490 1483 1485 1486 1459 1435 1440 1445 1441 1441 1437 1434 1433 1427 1421 1418 1417 1415 1410 1408 1408 1407 1406 1406 1406 1407 1407 1408 1409 1410 1412 1412 1415 1417 1420 1422 1424 1426 1429 1431 1434 1437 1440 1443 1446 1448 1450 1453 1454 1457 1459 1461 1461 1460 1462 1464 1467 1470 1473 1476 1479 1480 1482 1484 1485
1488 1491 1491 1492 1495 1498 1504 1502 1496 1499 1501 1492 1486 1486 1486 1488 1491 1492 1496 1497 1493 1489 1485 1482 1488 1478 1446 1435 1439 1435 1435 1435 1430 1426 1420 1416 1414 1411 1409 1406 1405 1405 1403 1403 1403 1402 1403 1403 1403 1405 1407 1408 1409 1411 1414 1416 1419 1421 1423 1426 1428 1431 1434 1437 1440 1442 1445 1447 1449 1452 1454 1456 1457 1458 1459 1462 1464 1466 1469 1472 1474 1476 1478 1479 1481 1482
1484 1489 1490 1490 1496 1498 1496 1490 1487 1494 1495 1486 1483 1487 1487 1487 1489 1490 1491 1494 1495 1492 1487 1479 1485 1486 1451 1425 1431 1432 1432 1434 1426 1420 1416 1411 1409 1405 1404 1404 1402 1402 1400 1400 1399 1398 1399 1400 1401 1403 1404 1405 1407 1409 1411 1414 1417 1418 1420 1423 1425 1428 1431 1434 1437 1439 1441 1444 1446 1448 1450 1451 1453 1455 1458 1460 1462 1464 1466 1468 1471 1473 1475 1476 1478 1480
1485 1486 1487 1490 1493 1491 1485 1483 1485 1489 1487 1483 1485 1487 1487 1488 1488 1491 1489 1489 1496 1491 1482 1478 1482 1483 1451 1420 1428 1435 1432 1431 1421 1416 1413 1407 1406 1404 1403 1402 1400 1399 1397 1396 1396 1395 1397 1397 1399 1400 1400 1402 1404 1407 1410 1412 1414 1416 1418 1421 1423 1425 1428 1430 1433 1436 1438 1441 1443 1444 1445 1447 1449 1452 1454 1456 1458 1461 1463 1464 1466 1469 1471 1473 1475 1477
1485 1486 1488 1486 1484 1481 1481 1484 1485 1485 1484 1484 1487 1486 1487 1490 1488 1493 1491 1489 1496 1486 1474 1472 1472 1479 1459 1426 1427 1432 1427 1426 1419 1415 1412 1406 1404 1402 1401 1399 1397 1396 1394 1393 1393 1393 1394 1395 1397 1398 1397 1400 1402 1405 1408 1409 1412 1413 1415 1418 1420 1423 1425 1427 1430 1433 1435 1437 1438 1440 1441 1444 1446 1448 1450 1452 1454 1456 1458 1460 1462 1464 1467 1469 1471 1473
1483 1486 1484 1477 1476 1478 1480 1483 1484 1486 1485 1484 1487 1486 1487 1491 1490 1494 1495 1495 1498 1483 1466 1462 1463 1472 1459 1427 1422 1423 1418 1419 1417 1414 1411 1406 1403 1399 1397 1396 1394 1394 1392 1391 1392 1391 1391 1393 1394 1395 1395 1397 1400 1402 1405 1406 1409 1411 1413 1416 1418 1420 1422 1425 1428 1430 1431 1433 1434 1436 1438 1440 1442 1444 1446 1447 1450 1452 1454 1456 1459 1461 1463 1465 1467 1469
1478 1476 1475 1472 1473 1476 1478 1481 1485 1486 1485 1485 1488 1489 1494 1499 1498 1497 1496 1497 1495 1476 1460 1460 1464 1464 1442 1419 1419 1417 1410 1411 1409 1409 1408 1404 1402 1397 1394 1394 1392 1392 1390 1389 1390 1390 1390 1390 1392 1393 1393 1395 1397 1399 1402 1404 1406 1408 1411 1413 1415 1417 1420 1422 1425 1426 1428 1430 1431 1432 1434 1436 1439 1441 1443 1444 1447 1449 1451 1453 1455 1457 1459 1461 1463 1465
1473 1467 1469 1474 1473 1471 1473 1478 1483 1480 1480 1483 1483 1485 1495 1501 1501 1500 1497 1494 1486 1467 1457 1462 1466 1456 1432 1415 1412 1408 1405 1404 1403 1405 1403 1400 1400 1396 1393 1393 1391 1390 1388 1387 1388 1389 1389 1389 1390 1391 1392 1394 1395 1397 1399 1401 1403 1405 1407 1410 1412 1414 1417 1419 1421 1424 1426 1427 1428 1431 1433 1435 1437 1438 1440 1442 1444 1446 1447 1449 1451 1453 1455 1457 1459 1461
1479 1469 1465 1470 1468 1467 1469 1468 1469 1468 1472 1477 1474 1476 1483 1483 1485 1488 1484 1478 1469 1459 1460 1468 1461 1444 1427 1412 1403 1402 1403 1401 1400 1400 1399 1398 1396 1393 1392 1390 1388 1388 1387 1386 1386 1387 1387 1388 1389 1390 1392 1393 1394 1396 1397 1399 1401 1402 1404 1406 1408 1411 1413 1415 1418 1420 1422 1423 1426 1428 1430 1433 1434 1436 1438 1439 1441 1442 1443 1445 1447 1448 1450 1452 1455 1458
1483 1471 1460 1463 1462 1462 1464 1460 1461 1467 1471 1473 1472 1475 1475 1468 1468 1471 1466 1460 1460 1462 1462 1461 1448 1429 1417 1407 1402 1404 1403 1399 1398 1397 1397 1397 1392 1391 1390 1387 1387 1387 1386 1387 1386 1385 1385 1386 1388 1389 1391 1392 1394 1395 1396 1397 1398 1399 1400 1402 1404 1407 1409 1412 1414 1415 1417 1420 1422 1425 1427 1429 1431 1433 1435 1435 1437 1438 1439 1441 1443 1444 1446 1448 1451 1454
1479 1470 1459 1461 1461 1459 1460 1458 1461 1466 1469 1473 1476 1472 1465 1461 1462 1467 1465 1458 1463 1468 1455 1442 1436 1424 1415 1408 1402 1404 1400 1396 1396 1395 1396 1396 1392 1390 1388 1386 1386 1386 1386 1386 1385 1384 1384 1385 1387 1388 1390 1392 1393 1394 1395 1395 1396 1397 1399 1400 1402 1405 1407 1408 1410 1411 1414 1416 1418 1420 1422 1425 1426 1428 1430 1431 1432 1434 1435 1437 1438 1440 1442 1444 1446 1449
1472 1468 1458 1457 1459 1458 1459 1461 1460 1460 1462 1468 1470 1463 1459 1462 1463 1467 1472 1466 1466 1467 1449 1434 1429 1423 1423 1417 1403 1401 1399 1394 1394 1394 1395 1395 1391 1389 1386 1385 1385 1384 1385 1385 1384 1384 1384 1385 1387 1387 1389 1391 1392 1394 1395 1396 1397 1398 1399 1400 1402 1403 1404 1405 1407 1409 1411 1412 1414 1416 1417 1419 1421 1423 1425 1427 1429 1430 1432 1433 1434 1435 1437 1439 1442 1444
1472 1473 1463 1455 1458 1460 1460 1462 1461 1458 1458 1460 1459 1457 1459 1464 1463 1463 1469 1469 1465 1462 1448 1436 1428 1421 1423 1418 1405 1402 1400 1395 1394 1393 1394 1395 1393 1390 1387 1387 1387 1386 1385 1385 1385 1386 1385 1386 1388 1388 1389 1390 1391 1393 1394 1395 1397 1398 1400 1400 1402 1403 1403 1404 1406 1407 1408 1409 1410 1412 1413 1415 1417 1418 1421 1422 1424 1426 1427 1428 1429 1431 1433 1435 1437 1440
1472 1477 1471 1459 1458 1463 1462 1461 1460 1457 1458 1459 1459 1459 1459 1458 1457 1456 1457 1456 1455 1453 1446 1439 1432 1422 1414 1408 1403 1401 1398 1395 1394 1393 1394 1396 1395 1393 1391 1390 1390 1389 1388 1388 1387 1387 1387 1388 1388 1388 1389 1390 1391 1392 1393 1394 1395 1396 1398 1399 1400 1401 1402 1403 1403 1404 1405 1405 1407 1408 1409 1411 1412 1414 1415 1417 1420 1421 1422 1424 1425 1427 1428 1430 1433 1435
1470 1474 1473 1464 1460 1462 1461 1458 1456 1455 1457 1461 1462 1461 1459 1456 1453 1452 1451 1446 1445 1447 1444 1440 1436 1422 1408 1402 1399 1397 1396 1396 1395 1394 1395 1395 1393 1393 1393 1391 1391 1390 1390 1390 1389 1389 1388 1388 1388 1388 1388 1389 1390 1391 1391 1392 1393 1394 1396 1397 1397 1398 1398 1399 1399 1400 1400 1401 1403 1404 1405 1407 1408 1409 1410 1412 1414 1416 1418 1420 1421 1422 1424 1426 1428 1430
1471 1473 1476 1474 1468 1464 1458 1453 1454 1454 1454 1457 1459 1457 1455 1453 1452 1454 1451 1441 1437 1440 1437 1437 1437 1423 1406 1400 1396 1395 1395 1395 1394 1394 1394 1393 1391 1391 1390 1390 1390 1389 1389 1389 1388 1388 1388 1388 1388 1388 1388 1389 1389 1390 1390 1390 1390 1391 1392 1393 1394 1394 1394 1394 1395 1395 1396 1396 1397 1398 1400 1402 1402 1403 1405 1407 1409 1410 1413 1415 1416 1418 1419 1421 1423 1425
1465 1470 1475 1476 1470 1464 1457 1451 1451 1452 1451 1452 1453 1450 1448 1448 1448 1451 1449 1438 1434 1435 1432 1434 1436 1424 1408 1398 1394 1392 1392 1391 1392 1392 1391 1390 1389 1388 1388 1388 1388 1388 1387 1387 1386 1386 1386 1386 1387 1387 1387 1388 1388 1388 1387 1387 1388 1389 1389 1390 1391 1390 1390 1390 1390 1390 1391 1391 1391 1392 1394 1395 1396 1398 1399 1401 1403 1405 1407 1410 1411 1413 1414 1416 1419 1421
1459 1463 1467 1468 1464 1459 1454 1450 1447 1446 1448 1450 1448 1446 1445 1443 1440 1440 1439 1436 1434 1434 1434 1435 1431 1419 1407 1397 1391 1389 1388 1388 1388 1387 1387 1388 1387 1386 1386 1385 1385 1385 1385 1385 1384 1384 1384 1384 1384 1385 1385 1386 1386 1386 1385 1385 1385 1386 1386 1386 1386 1385 1385 1385 1386 1385 1385 1385 1385 1386 1387 1388 1390 1391 1393 1395 1397 1399 1402 1404 1406 1407 1410 1412 1414 1416
1455 1456 1458 1462 1462 1459 1456 1454 1448 1443 1443 1443 1441 1439 1438 1436 1434 1434 1433 1434 1432 1429 1429 1428 1418 1408 1402 1396 1391 1389 1385 1382 1381 1380 1383 1385 1384 1383 1383 1382 1382 1381 1380 1380 1379 1379 1380 1381 1381 1382 1382 1382 1382 1382 1383 1383 1382 1382 1381 1381 1380 1379 1379 1379 1379 1379 1378 1379 1379 1380 1381 1382 1383 1385 1387 1389 1391 1393 1396 1398 1400 1402 1404 1407 1408 1411
1453 1450 1452 1458 1459 1455 1451 1447 1441 1437 1437 1437 1435 1433 1432 1432 1433 1432 1432 1434 1429 1421 1417 1415 1407 1400 1397 1396 1394 1390 1384 1379 1374 1373 1378 1381 1380 1378 1378 1378 1378 1378 1377 1376 1375 1375 1376 1376 1377 1378 1379 1380 1379 1380 1380 1380 1379 1377 1376 1376 1375 1374 1374 1373 1372 1372 1373 1373 1374 1374 1375 1376 1377 1379 1381 1383 1384 1387 1390 1391 1393 1395 1398 1400 1403 1405
1456 1450 1448 1449 1447 1442 1437 1431 1429 1431 1434 1434 1432 1429 1428 1430 1431 1432 1432 1429 1422 1417 1411 1405 1401 1398 1396 1396 1392 1386 1381 1377 1371 1369 1372 1376 1375 1373 1372 1372 1373 1373 1372 1371 1371 1372 1372 1372 1373 1374 1376 1377 1377 1377 1377 1376 1375 1373 1372 1371 1370 1370 1369 1368 1367 1366 1366 1367 1367 1368 1369 1370 1372 1374 1375 1376 1378 1381 1383 1384 1386 1388 1391 1394 1397 1399
1454 1450 1445 1442 1438 1434 1431 1427 1426 1429 1430 1430 1428 1426 1425 1425 1427 1429 1428 1421 1420 1419 1410 1400 1399 1397 1394 1394 1390 1382 1378 1374 1370 1368 1369 1370 1370 1369 1367 1367 1368 1369 1368 1368 1369 1369 1368 1368 1369 1370 1371 1371 1371 1371 1371 1370 1369 1368 1366 1365 1365 1364 1363 1362 1361 1360 1360 1360 1361 1362 1363 1365 1367 1368 1369 1370 1372 1374 1376 1378 1380 1382 1385 1388 1390 1393
1447 1442 1438 1435 1432 1430 1430 1428 1426 1426 1425 1424 1424 1423 1422 1421 1422 1422 1418 1413 1415 1413 1403 1398 1398 1394 1390 1389 1385 1378 1374 1371 1368 1368 1366 1365 1365 1364 1363 1364 1365 1365 1365 1367 1367 1366 1365 1364 1365 1365 1366 1366 1365 1365 1364 1363 1362 1360 1359 1358 1357 1356 1356 1356 1355 1354 1354 1354 1355 1357 1359 1360 1361 1362 1363 1365 1366 1367 1369 1371 1373 1376 1379 1381 1384 1387
1444 1438 1433 1431 1429 1427 1427 1426 1424 1424 1422 1420 1419 1418 1417 1417 1415 1413 1409 1407 1406 1401 1394 1393 1392 1386 1383 1383 1378 1373 1371 1368 1367 1366 1364 1362 1361 1360 1361 1363 1365 1365 1365 1366 1366 1365 1364 1363 1362 1362 1361 1360 1360 1359 1358 1356 1355 1354 1352 1350 1349 1348 1349 1349 1348 1348 1348 1349 1350 1352 1354 1355 1355 1357 1358 1359 1360 1362 1364 1365 1368 1370 1373 1375 1378 1382
1446 1438 1431 1431 1429 1425 1423 1422 1420 1420 1418 1415 1414 1414 1414 1412 1409 1406 1405 1403 1402 1396 1390 1390 1388 1381 1377 1375 1370 1367 1367 1367 1366 1363 1361 1360 1361 1363 1365 1367 1369 1368 1367 1366 1364 1363 1362 1361 1360 1359 1357 1356 1355 1353 1351 1349 1348 1348 1346 1344 1343 1342 1341 1342 1341 1342 1343 1343 1345 1346 1347 1347 1349 1350 1352 1353 1355 1357 1359 1361 1363 1366 1368 1371 1373 1377
1448 1441 1435 1434 1428 1419 1418 1418 1417 1417 1417 1414 1413 1410 1407 1405 1401 1398 1396 1395 1394 1390 1385 1385 1383 1378 1374 1372 1368 1366 1367 1367 1366 1364 1365 1367 1369 1372 1373 1373 1373 1372 1369 1366 1363 1361 1360 1359 1358 1357 1355 1353 1352 1349 1347 1344 1342 1341 1339 1337 1337 1336 1335 1335 1334 1335 1336 1337 1339 1339 1339 1340 1342 1343 1345 1347 1349 1351 1354 1357 1359 1362 1364 1366 1369 1371
1446 1443 1439 1436 1426 1416 1414 1413 1413 1415 1412 1407 1404 1400 1396 1393 1391 1389 1388 1386 1384 1384 1384 1384 1384 1384 1385 1384 1382 1381 1379 1377 1376 1375 1376 1376 1377 1377 1378 1378 1376 1374 1372 1369 1365 1362 1359 1358 1357 1355 1352 1349 1347 1345 1343 1340 1336 1334 1332 1332 1331 1330 1329 1328 1328 1329 1330 1331 1332 1332 1332 1334 1335 1337 1339 1341 1344 1346 1349 1352 1355 1357 1359 1362 1365 1367
1440 1439 1437 1434 1428 1418 1414 1414 1415 1412 1402 1391 1387 1388 1387 1385 1385 1384 1383 1383 1386 1391 1392 1392 1392 1396 1399 1397 1397 1396 1390 1386 1386 1385 1381 1380 1379 1378 1377 1377 1376 1374 1372 1370 1367 1363 1359 1356 1354 1352 1349 1346 1343 1339 1336 1333 1330 1328 1327 1327 1326 1325 1324 1323 1323 1323 1324 1325 1325 1326 1327 1329 1330 1332 1334 1337 1339 1341 1344 1347 1349 1352 1355 1357 1360 1363
1436 1435 1431 1430 1426 1417 1415 1419 1415 1402 1390 1384 1385 1390 1391 1388 1388 1388 1384 1389 1402 1408 1404 1401 1401 1404 1404 1402 1401 1400 1394 1388 1387 1383 1379 1380 1380 1378 1375 1373 1372 1371 1370 1368 1366 1363 1360 1357 1353 1350 1346 1343 1339 1335 1331 1327 1325 1323 1323 1322 1321 1319 1318 1318 1318 1318 1319 1320 1320 1321 1323 1324 1325 1327 1330 1332 1335 1337 1339 1342 1344 1347 1350 1352 1356 1358
1432 1430 1425 1423 1420 1415 1415 1415 1403 1387 1381 1383 1388 1396 1398 1397 1400 1400 1396 1402 1414 1415 1407 1406 1407 1406 1406 1403 1400 1398 1394 1388 1382 1378 1377 1379 1380 1379 1377 1374 1372 1371 1369 1367 1365 1363 1360 1357 1354 1350 1346 1342 1338 1333 1328 1323 1320 1318 1317 1317 1315 1314 1314 1313 1313 1314 1314 1315 1316 1317 1319 1320 1321 1323 1325 1328 1330 1332 1335 1337 1339 1342 1345 1348 1352 1355
1426 1426 1423 1418 1412 1410 1409 1401 1388 1378 1378 1386 1398 1408 1411 1411 1412 1412 1407 1409 1415 1414 1409 1409 1407 1404 1403 1401 1399 1397 1392 1386 1380 1376 1376 1378 1379 1379 1378 1376 1374 1372 1369 1367 1365 1362 1360 1357 1353 1350 1346 1341 1337 1332 1328 1323 1318 1314 1313 1313 1312 1311 1311 1310 1310 1311 1311 1311 1312 1313 1315 1316 1318 1319 1321 1324 1325 1328 1330 1332 1335 1337 1340 1344 1347 1350
1425 1425 1425 1420 1412 1408 1405 1399 1391 1382 1385 1402 1416 1417 1414 1412 1411 1409 1406 1407 1411 1413 1410 1408 1406 1403 1401 1399 1398 1396 1391 1387 1383 1378 1378 1379 1378 1377 1376 1375 1373 1371 1368 1365 1363 1360 1357 1354 1351 1349 1346 1342 1337 1333 1329 1325 1320 1316 1313 1313 1312 1312 1311 1310 1309 1309 1309 1309 1310 1311 1312 1314 1315 1316 1318 1319 1321 1324 1326 1328 1331 1333 1336 1340 1343 1346
1425 1424 1425 1424 1419 1413 1411 1410 1403 1393 1398 1416 1419 1410 1407 1405 1400 1397 1395 1398 1408 1412 1409 1408 1407 1405 1402 1400 1398 1396 1394 1393 1388 1382 1381 1382 1380 1379 1377 1373 1371 1368 1366 1364 1362 1359 1356 1352 1349 1346 1344 1341 1337 1333 1330 1327 1323 1319 1316 1315 1315 1313 1311 1309 1308 1308 1308 1308 1308 1309 1310 1312 1314 1315 1316 1317 1319 1321 1323 1325 1328 1330 1334 1338 1341 1344
1426 1425 1424 1425 1424 1419 1416 1414 1406 1398 1407 1419 1412 1405 1405 1398 1392 1393 1391 1390 1402 1409 1407 1407 1407 1405 1404 1404 1401 1400 1401 1399 1392 1383 1382 1383 1382 1380 1379 1376 1372 1368 1364 1361 1359 1356 1354 1351 1347 1344 1341 1339 1336 1333 1331 1328 1325 1322 1318 1316 1314 1313 1311 1310 1308 1307 1307 1306 1307 1308 1309 1311 1313 1314 1315 1317 1318 1319 1321 1323 1325 1328 1331 1334 1337 1340
1429 1428 1427 1426 1427 1424 1422 1420 1411 1403 1409 1415 1409 1404 1400 1392 1394 1406 1405 1399 1403 1406 1405 1406 1406 1405 1405 1404 1402 1402 1402 1401 1396 1388 1383 1381 1378 1376 1376 1374 1372 1368 1365 1361 1358 1355 1351 1347 1344 1342 1339 1337 1336 1333 1330 1328 1325 1322 1319 1315 1314 1313 1311 1310 1308 1307 1306 1305 1306 1307 1308 1310 1311 1312 1313 1315 1316 1317 1319 1321 1323 1325 1328 1331 1333 1335
1433 1432 1429 1427 1427 1426 1425 1425 1420 1410 1405 1407 1406 1402 1399 1401 1409 1413 1409 1405 1405 1404 1404 1405 1404 1404 1403 1401 1401 1401 1397 1396 1394 1389 1384 1381 1377 1373 1371 1370 1367 1364 1361 1359 1356 1354 1351 1345 1340 1337 1335 1334 1333 1331 1329 1326 1323 1321 1318 1315 1314 1313 1312 1310 1309 1307 1306 1305 1304 1305 1306 1308 1310 1311 1311 1312 1313 1314 1316 1318 1320 1322 1325 1328 1330 1332
1434 1435 1433 1430 1427 1426 1426 1424 1421 1413 1404 1404 1407 1404 1403 1410 1414 1408 1403 1404 1405 1403 1403 1403 1401 1402 1400 1398 1397 1395 1393 1391 1389 1386 1382 1379 1376 1373 1370 1368 1366 1363 1358 1355 1352 1350 1347 1342 1337 1334 1332 1331 1330 1329 1327 1324 1321 1319 1317 1315 1315 1314 1312 1310 1309 1307 1306 1304 1303 1303 1304 1306 1307 1309 1309 1310 1311 1312 1313 1315 1317 1319 1321 1324 1326 1328
1434 1434 1434 1428 1424 1426 1426 1418 1412 1410 1406 1406 1410 1409 1407 1408 1407 1403 1402 1403 1402 1401 1400 1399 1398 1397 1396 1394 1392 1389 1388 1386 1384 1382 1380 1376 1374 1372 1369 1367 1365 1362 1358 1354 1350 1347 1344 1340 1335 1332 1330 1328 1328 1327 1325 1323 1320 1317 1316 1315 1315 1314 1312 1309 1308 1306 1305 1304 1303 1303 1303 1304 1305 1306 1307 1308 1309 1310 1311 1312 1314 1316 1318 1320 1322 1324
1429 1427 1428 1427 1424 1425 1424 1414 1407 1407 1407 1406 1406 1406 1405 1403 1401 1401 1401 1400 1398 1398 1397 1395 1394 1392 1391 1390 1388 1385 1383 1381 1379 1378 1376 1373 1371 1370 1367 1365 1363 1360 1356 1352 1348 1345 1342 1339 1334 1331 1327 1325 1325 1324 1322 1321 1318 1315 1314 1314 1313 1312 1310 1308 1306 1305 1304 1303 1303 1303 1303 1303 1303 1304 1304 1305 1306 1307 1308 1310 1311 1313 1314 1315 1317 1319
1423 1422 1425 1425 1422 1419 1416 1411 1408 1408 1406 1403 1403 1403 1402 1400 1399 1398 1398 1397 1396 1395 1393 1392 1390 1388 1387 1386 1384 1381 1380 1378 1376 1374 1372 1371 1368 1366 1364 1361 1358 1356 1353 1349 1345 1342 1339 1336 1332 1329 1325 1321 1320 1320 1318 1317 1315 1313 1311 1311 1310 1309 1308 1306 1304 1303 1302 1301 1300 1301 1301 1301 1301 1302 1302 1303 1303 1304 1305 1307 1308 1310 1311 1312 1313 1314
1419 1420 1423 1421 1419 1418 1414 1407 1405 1406 1402 1399 1399 1400 1398 1397 1396 1395 1395 1394 1393 1391 1390 1389 1387 1385 1384 1383 1381 1379 1376 1374 1373 1370 1368 1367 1364 1361 1359 1357 1353 1351 1349 1345 1342 1338 1335 1331 1328 1325 1321 1317 1316 1315 1314 1311 1310 1309 1308 1307 1306 1305 1303 1302 1301 1300 1299 1298 1297 1297 1297 1297 1298 1299 1300 1300 1300 1300 1301 1303 1305 1307 1308 1308 1309 1310
1416 1417 1419 1416 1414 1413 1409 1403 1401 1402 1399 1395 1395 1395 1393 1393 1392 1391 1391 1390 1389 1388 1387 1386 1385 1383 1381 1380 1378 1376 1373 1371 1369 1367 1364 1362 1359 1356 1354 1351 1348 1345 1342 1339 1337 1333 1329 1326 1323 1320 1317 1313 1311 1310 1309 1306 1304 1303 1303 1302 1301 1300 1298 1297 1296 1295 1295 1294 1293 1293 1293 1293 1293 1294 1295 1296 1296 1296 1296 1297 1298 1300 1301 1302 1303 1305
1414 1414 1412 1410 1409 1408 1405 1401 1399 1398 1394 1391 1390 1389 1388 1388 1388 1387 1387 1386 1385 1384 1383 1382 1381 1380 1378 1376 1375 1373 1370 1367 1365 1363 1360 1356 1353 1351 1348 1345 1341 1337 1334 1331 1328 1325 1322 1319 1316 1314 1311 1308 1306 1305 1302 1300 1299 1298 1297 1296 1295 1294 1293 1292 1291 1290 1289 1288 1288 1287 1287 1288 1287 1288 1289 1290 1290 1291 1291 1292 1293 1294 1296 1297 1298 1300
1411 1408 1404 1406 1409 1406 1399 1395 1395 1394 1390 1386 1385 1385 1385 1384 1383 1383 1383 1382 1381 1380 1379 1377 1376 1375 1374 1372 1370 1368 1365 1362 1358 1357 1354 1350 1346 1343 1341 1338 1335 1330 1327 1323 1320 1317 1315 1312 1310 1308 1305 1302 1301 1298 1295 1293 1292 1291 1291 1290 1288 1288 1288 1287 1286 1285 1283 1282 1281 1281 1281 1281 1281 1282 1282 1283 1284 1285 1286 1287 1288 1290 1292 1293 1295 1297
1403 1400 1398 1400 1400 1394 1389 1388 1389 1389 1386 1382 1381 1382 1382 1381 1381 1380 1379 1379 1378 1376 1375 1374 1372 1369 1368 1366 1365 1363 1360 1356 1352 1350 1347 1343 1340 1336 1333 1331 1328 1324 1320 1317 1313 1310 1307 1305 1304 1302 1299 1296 1294 1291 1288 1286 1284 1283 1283 1283 1282 1281 1281 1281 1280 1278 1276 1275 1275 1274 1275 1275 1275 1275 1276 1276 1277 1278 1280 1281 1283 1285 1287 1288 1290 1293